Location: Lynch Observatory
(39.9540°N, 75.1861°W)
Time: 23:44:34
(UTC-04:00)

CAS-4B - Pass Details

Date: 24 April 2024
Orbit: 474 x 492 km, 43.0° (Epoch: 27 May)

Event Time Altitude Azimuth Distance (km) Brightness Sun altitude
Exits shadow 03:24:24 32° 57° (ENE) 845 ? -27.1°
Drops below altitude 10° 03:26:39 10° 71° (ENE) 1,666 ? -26.8°
Enters shadow 04:26:05 -65° 270° (W) 12,050 ? -18.4°
Maximum altitude 05:02:11 59° 9° (N) 567 ? -12.6°
